Other Public Products
Issued by NWS Charleston, SC

Current Version | Previous Version | Graphics & Text | Print | Product List | Glossary On
Versions: 1 2 3 4 5 6 7 8 9 10 11 12 13 14 15 16 17 18 19 20 21 22 23 24 25 26 27 28 29 30 31 32 33 34 35 36 37 38 39 40 41 42 43 44 45 46 47 48 49 50
464 FPUS82 KCHS 270812 OPUCHS TEST...KCHS/KSAV Gateway Observations...TEST National Weather Service Charleston SC 400 AM EDT TUE JUN 27 2017 NOTE: "fair" indicates few or no clouds below 12,000 feet with no significant weather and/or obstructions to visibility. SCZ050-WAZ558-NCZ071-TXZ119-213-PAZ071-DCZ001-FLZ074-172-MI076- NYZ176-178-MAZ016-IL014-TNZ027-NJZ106-GAZ044-MD014-270900- ...Gateway Observations for Charleston International... CITY SKY/WX TMP DP RH WIND PRES REMARKS Chas Airport PTCLDY 70 66 87 CALM 30.02S Seattle PTCLDY 55 50 83 SW7 30.03R Charlotte MOCLDY 64 60 87 CALM 30.04F Dallas DFW PTCLDY 77 69 76 SE7 30.01F Dallas Love MOCLDY 78 67 68 SE8 30.02F Philladelphia LGT RAIN 62 58 86 E6 30.00S Wash National PTCLDY 70 50 49 N3 30.00R Baltimore PTCLDY 63 54 72 CALM 29.99R Miami PTCLDY 81 73 76 SE3 30.00F Detroit PTCLDY 53 46 77 W10 30.01R Newark CLOUDY 66 51 58 N8 29.99S Laguardia CLOUDY 68 53 58 NE6 29.98F J F K MOCLDY 67 51 56 N9 29.99S Boston Logan CLEAR 61 54 77 CALM 30.00R Ft. Lauderdale PTCLDY 81 74 79 CALM 29.99F Chicago O`Hare CLEAR 53 46 77 W5 30.10R Chicago Midway CLEAR 56 46 69 W5 30.10R Houston Bush CLOUDY 74 71 91 SE3 30.00F Houston Hobby MOCLDY 77 73 87 CALM 29.98F THUNDER Nashville PTCLDY 66 55 67 CALM 30.09F Atlanta CLOUDY 68 60 75 NW7 30.07F $$ GAZ044-118-TXZ119-213-NCZ071-DCZ001-MDZ014-506-PAZ021-071-NJZ106- NYZ176-178-MAZ106-OHZ011-021-055-MIZ076-KYZ091-ILZ014-INZ047- MNZ060-ONZ431-270900- ...Gateway Observations for Savannah International... CITY SKY/WX TMP DP RH WIND PRES REMARKS Savannah Arpt PTCLDY 74 71 91 CALM 30.02F Atlanta CLOUDY 68 60 75 NW7 30.07F Charlotte MOCLDY 64 60 87 CALM 30.04F Dallas DFW PTCLDY 77 69 76 SE7 30.01F Houston Bush CLOUDY 74 71 91 SE3 30.00F Wash National PTCLDY 70 50 49 N3 30.00R Wash Dulles PTCLDY 62 50 64 CALM 30.00S Baltimore PTCLDY 63 54 72 CALM 29.99R Philadelphia LGT RAIN 62 58 86 E6 30.00S Newark CLOUDY 66 51 58 N8 29.99S Laguardia CLOUDY 68 53 58 NE6 29.98F J F K MOCLDY 67 51 56 N9 29.99S Boston CLEAR 61 54 77 CALM 30.00R Pittsburg PTCLDY 56 51 84 SW3 30.02S Akron MOCLDY 56 48 74 W6 30.01S Cleveland PTCLDY 55 51 86 SW10 30.01S THUNDER Cincinnati CLEAR 55 49 80 W7 30.09F Columbus PTCLDY 53 52 97 SW5 30.06S Detroit PTCLDY 53 46 77 W10 30.01R Chicago O`Hare CLEAR 53 46 77 W5 30.10R Minneapolis CLEAR 57 46 66 S5 30.10S Indianapolis CLEAR 52 48 86 W6 30.11S Toronto Canada MOCLDY 54 46 76 VRB2 29.89S $$

USA.gov is the U.S. government's official web portal to all federal, state and local government web resources and services.